Colby, KS

11:38 AM CST on January 20, 2018 (GMT -0600)
Shaltz

Weather History for KCBK - April, 2014

Change the Weather History Date:

Tuesday, April 15, 2014

  Actual Average (KGLD) Record (KGLD)
Temperature  
Mean Temperature 45 °F -  
Max Temperature 66 °F 64 °F 92 °F (2002)
Min Temperature 24 °F 34 °F 20 °F (1951)
Degree Days  
Heating Degree Days 20    
Moisture  
Dew Point 26 °F    
Average Humidity 54    
Maximum Humidity 93    
Minimum Humidity 23    
Precipitation  
Precipitation 0.00 in - - ()
Sea Level Pressure  
Sea Level Pressure 29.96 in    
Wind  
Wind Speed 12 mph (SSW)    
Max Wind Speed 24 mph    
Max Gust Speed 31 mph    
Visibility 10 miles    
Events      
Averages and records for this station are not official NWS values.
T = Trace of Precipitation, MM = Missing Value Source: NWS Daily Summary

Daily Weather History Graph

Daily Weather History Graph

Search for Another Location

Airport or City:

Trip Planner

Search our weather history database for the weather conditions in past years. The results will help you decide how hot, cold, wet, or windy it might be!

Date:

Astronomy

Apr. 15, 2014 Rise Set
Actual Time 7:07 AM CDT 8:22 PM CDT
Civil Twilight 6:39 AM CDT 8:49 PM CDT
Nautical Twilight 6:06 AM CDT 9:23 PM CDT
Astronomical Twilight 5:31 AM CDT 9:58 PM CDT
Moon 9:04 PM CDT (4/15) 7:16 AM CDT (4/15)
Length of Visible Light 14h 10m
Length of Day
13h 15m
Full, 100% of the Moon is Illuminated
Apr 15
Full
Apr 22
Last Quarter
Apr 29
New
May 6
First Quarter
May 14
Full

Hourly Weather History & Observations

Time (CDT) Temp. Windchill Dew Point Humidity Pressure Visibility Wind Dir Wind Speed Gust Speed Precip Events Conditions
12:10 AM 30.2 °F 21.9 °F 26.6 °F 86% 30.20 in 10.0 mi West 9.2 mph - N/A   Clear
12:30 AM 28.4 °F 20.4 °F 26.6 °F 93% 30.19 in 10.0 mi West 8.1 mph - N/A   Clear
12:50 AM 28.4 °F 19.7 °F 26.6 °F 93% 30.19 in 10.0 mi West 9.2 mph - N/A   Clear
1:10 AM 28.4 °F 19.7 °F 26.6 °F 93% 30.19 in 10.0 mi West 9.2 mph - N/A   Clear
1:30 AM 28.4 °F 19.1 °F 26.6 °F 93% 30.19 in 10.0 mi West 10.4 mph - N/A   Clear
1:50 AM 28.4 °F 19.7 °F 26.6 °F 93% 30.18 in 10.0 mi West 9.2 mph - N/A   Clear
2:10 AM 28.4 °F 21.2 °F 26.6 °F 93% 30.18 in 10.0 mi West 6.9 mph - N/A   Clear
2:30 AM 28.4 °F 20.4 °F 24.8 °F 86% 30.18 in 10.0 mi West 8.1 mph - N/A   Clear
2:50 AM 28.4 °F 20.4 °F 24.8 °F 86% 30.17 in 10.0 mi WSW 8.1 mph - N/A   Clear
3:10 AM 28.4 °F 19.7 °F 24.8 °F 86% 30.16 in 10.0 mi WSW 9.2 mph - N/A   Clear
3:30 AM 28.4 °F 20.4 °F 24.8 °F 86% 30.16 in 10.0 mi WSW 8.1 mph - N/A   Clear
3:50 AM 26.6 °F 19.1 °F 23.0 °F 86% 30.15 in 10.0 mi WSW 6.9 mph - N/A   Clear
4:10 AM 26.6 °F 20.0 °F 23.0 °F 86% 30.14 in 10.0 mi WSW 5.8 mph - N/A   Clear
4:30 AM 26.6 °F 18.2 °F 23.0 °F 86% 30.14 in 10.0 mi WSW 8.1 mph - N/A   Clear
5:10 AM 26.6 °F 19.1 °F 23.0 °F 86% 30.13 in 10.0 mi WSW 6.9 mph - N/A   Clear
5:30 AM 26.6 °F 21.2 °F 23.0 °F 86% 30.12 in 10.0 mi WSW 4.6 mph - N/A   Clear
5:50 AM 26.6 °F 19.1 °F 23.0 °F 86% 30.11 in 10.0 mi WSW 6.9 mph - N/A   Clear
6:10 AM 24.8 °F 16.9 °F 21.2 °F 86% 30.11 in 10.0 mi SW 6.9 mph - N/A   Clear
6:30 AM 24.8 °F 15.3 °F 23.0 °F 93% 30.10 in 10.0 mi SW 9.2 mph - N/A   Clear
6:50 AM 26.6 °F 17.5 °F 23.0 °F 86% 30.10 in 10.0 mi SW 9.2 mph - N/A   Clear
7:10 AM 26.6 °F 18.2 °F 23.0 °F 86% 30.09 in 10.0 mi SW 8.1 mph - N/A   Clear
7:30 AM 26.6 °F 17.5 °F 23.0 °F 86% 30.09 in 10.0 mi SW 9.2 mph - N/A   Clear
7:50 AM 28.4 °F 19.7 °F 23.0 °F 80% 30.10 in 10.0 mi SW 9.2 mph - N/A   Clear
8:10 AM 32.0 °F 25.6 °F 23.0 °F 69% 30.09 in 10.0 mi SSW 6.9 mph - N/A   Clear
8:30 AM 32.0 °F 22.5 °F 23.0 °F 69% 30.08 in 10.0 mi SSW 12.7 mph - N/A   Clear
8:50 AM 33.8 °F 23.2 °F 23.0 °F 65% 30.07 in 10.0 mi SSW 17.3 mph 20.7 mph N/A   Clear
9:10 AM 37.4 °F 28.5 °F 21.2 °F 52% 30.07 in 10.0 mi SSW 15.0 mph 20.7 mph N/A   Clear
9:30 AM 41.0 °F 31.6 °F 21.2 °F 45% 30.05 in 10.0 mi SSW 20.7 mph - N/A   Clear
9:50 AM 42.8 °F 34.3 °F 21.2 °F 42% 30.05 in 10.0 mi SSW 19.6 mph 25.3 mph N/A   Clear
10:10 AM 44.6 °F 36.4 °F 23.0 °F 43% 30.04 in 10.0 mi SSW 20.7 mph 26.5 mph N/A   Clear
10:30 AM 46.4 °F 39.2 °F 26.6 °F 46% 30.03 in 10.0 mi SSW 18.4 mph 26.5 mph N/A   Clear
10:50 AM 48.2 °F - 26.6 °F 43% 30.02 in 10.0 mi SSW 18.4 mph 23.0 mph N/A   Clear
11:10 AM 50.0 °F - 28.4 °F 43% 30.01 in 10.0 mi SW 20.7 mph 25.3 mph N/A   Clear
11:50 AM 53.6 °F - 30.2 °F 41% 30.00 in 10.0 mi SSW 15.0 mph 20.7 mph N/A   Clear
12:30 PM 59.0 °F - 30.2 °F 34% 29.97 in 10.0 mi SW 17.3 mph 25.3 mph N/A   Clear
12:50 PM 60.8 °F - 28.4 °F 29% 29.95 in 10.0 mi SW 19.6 mph 27.6 mph N/A   Clear
1:10 PM 60.8 °F - 28.4 °F 29% 29.93 in 10.0 mi SW 21.9 mph 26.5 mph N/A   Clear
1:30 PM 60.8 °F - 26.6 °F 27% 29.93 in 10.0 mi SW 21.9 mph 28.8 mph N/A   Clear
1:50 PM 62.6 °F - 26.6 °F 26% 29.92 in 10.0 mi SSW 20.7 mph 29.9 mph N/A   Clear
2:10 PM 62.6 °F - 24.8 °F 24% 29.90 in 10.0 mi SW 18.4 mph 26.5 mph N/A   Clear
2:30 PM 64.4 °F - 26.6 °F 24% 29.89 in 10.0 mi SSW 21.9 mph 28.8 mph N/A   Clear
2:50 PM 64.4 °F - 26.6 °F 24% 29.88 in 10.0 mi SSW 19.6 mph 29.9 mph N/A   Clear
3:10 PM 64.4 °F - 26.6 °F 24% 29.87 in 10.0 mi SSW 20.7 mph 28.8 mph N/A   Clear
3:30 PM 64.4 °F - 26.6 °F 24% 29.86 in 10.0 mi SW 24.2 mph 28.8 mph N/A   Clear
3:50 PM 66.2 °F - 26.6 °F 23% 29.85 in 10.0 mi SSW 24.2 mph 29.9 mph N/A   Clear
4:10 PM 66.2 °F - 26.6 °F 23% 29.84 in 10.0 mi SW 20.7 mph 27.6 mph N/A   Clear
4:30 PM 66.2 °F - 28.4 °F 24% 29.83 in 10.0 mi SSW 21.9 mph 31.1 mph N/A   Clear
4:50 PM 64.4 °F - 26.6 °F 24% 29.82 in 10.0 mi SSW 19.6 mph 28.8 mph N/A   Clear
5:10 PM 64.4 °F - 26.6 °F 24% 29.80 in 10.0 mi SSW 18.4 mph 25.3 mph N/A   Clear
5:30 PM 62.6 °F - 28.4 °F 27% 29.80 in 10.0 mi SSW 17.3 mph 23.0 mph N/A   Clear
5:50 PM 62.6 °F - 28.4 °F 27% 29.79 in 10.0 mi SSW 16.1 mph 24.2 mph N/A   Clear
6:10 PM 64.4 °F - 28.4 °F 26% 29.78 in 10.0 mi South 16.1 mph 23.0 mph N/A   Clear
6:30 PM 64.4 °F - 26.6 °F 24% 29.77 in 10.0 mi South 17.3 mph - N/A   Clear
6:50 PM 62.6 °F - 26.6 °F 26% 29.77 in 10.0 mi South 18.4 mph 25.3 mph N/A   Clear
7:10 PM 62.6 °F - 28.4 °F 27% 29.76 in 10.0 mi South 16.1 mph - N/A   Clear
7:30 PM 62.6 °F - 28.4 °F 27% 29.75 in 10.0 mi South 13.8 mph 20.7 mph N/A   Clear
7:50 PM 60.8 °F - 28.4 °F 29% 29.75 in 10.0 mi South 13.8 mph 19.6 mph N/A   Clear
8:10 PM 59.0 °F - 30.2 °F 34% 29.74 in 10.0 mi South 11.5 mph - N/A   Clear
8:30 PM 57.2 °F - 30.2 °F 36% 29.74 in 10.0 mi South 13.8 mph 20.7 mph N/A   Clear
8:50 PM 55.4 °F - 30.2 °F 38% 29.73 in 10.0 mi South 15.0 mph - N/A   Clear
9:10 PM 53.6 °F - 30.2 °F 41% 29.73 in 10.0 mi South 13.8 mph - N/A   Clear
9:30 PM 53.6 °F - 30.2 °F 41% 29.73 in 10.0 mi SSE 16.1 mph - N/A   Clear
9:50 PM 51.8 °F - 30.2 °F 44% 29.74 in 10.0 mi SSE 12.7 mph 18.4 mph N/A   Clear
10:10 PM 50.0 °F - 30.2 °F 47% 29.74 in 10.0 mi SSE 12.7 mph - N/A   Clear
10:30 PM 50.0 °F - 30.2 °F 47% 29.74 in 10.0 mi SSE 12.7 mph - N/A   Clear
10:50 PM 46.4 °F 42.4 °F 30.2 °F 53% 29.73 in 10.0 mi SSE 8.1 mph - N/A   Clear
11:10 PM 44.6 °F 39.7 °F 30.2 °F 57% 29.72 in 10.0 mi SSE 9.2 mph - N/A   Clear
11:30 PM 44.6 °F 39.2 °F 30.2 °F 57% 29.71 in 10.0 mi SSE 10.4 mph - N/A   Clear
11:50 PM 46.4 °F 40.1 °F 30.2 °F 53% 29.70 in 10.0 mi SSE 15.0 mph - N/A   Clear